FW7622 Weather Reports


Display with metric or nautical units.
time (UTC)temp
F
wind
direction
speed
MPH
gust
MPH
rain 1hr
in
rain 24hr
in
rain mn
in
humidity
%
barometer
mb
20260903212624 71 160 0.0 1.0 0.04 0.59 0.59 99 1010.4
20260903212119 71 172 0.0 0.0 0.04 0.59 0.59 99 1009.4
20260903211614 71 146 2.0 2.0 0.03 0.58 0.58 99 1009.4
20260903211112 71 178 0.0 1.0 0.00 0.55 0.55 99 1009.7
20260903210606 71 185 0.0 0.0 0.00 0.55 0.55 99 1010.4
20260903205601 72 192 0.0 0.0 0.00 0.55 0.55 99 1010.4
20260903205055 72 169 0.0 1.0 0.00 0.55 0.55 99 1010.0
20260903204552 72 167 0.0 1.0 0.00 0.55 0.55 99 1010.4
20260903204052 72 177 0.0 1.0 0.00 0.55 0.55 99 1010.7
20260903203547 72 187 0.0 0.0 0.00 0.55 0.55 99 1010.7
20260903203042 72 188 1.0 1.0 0.00 0.55 0.55 99 1010.4
20260903202538 72 149 1.0 1.0 0.00 0.55 0.55 99 1010.0
20260903202033 72 167 0.0 1.0 0.00 0.55 0.55 99 1010.4
20260903201527 72 174 0.0 0.0 0.00 0.55 0.55 99 1010.7
20260903201027 72 177 0.0 0.0 0.00 0.55 0.55 99 1010.7
20260903200522 72 167 0.0 0.0 0.00 0.55 0.55 99 1011.1
20260903200017 72 161 1.0 1.0 0.00 0.55 0.55 99 1011.5
20260903195513 73 184 0.0 0.0 0.00 0.55 0.55 99 1011.5
20260903195008 73 141 1.0 1.0 0.00 0.55 0.55 98 1010.7
20260903194503 74 180 0.0 0.0 0.00 0.55 0.55 97 1010.7
20260903193959 75 191 0.0 0.0 0.00 0.55 0.55 97 1010.7
20260903193455 75 173 0.0 0.0 0.00 0.55 0.55 97 1010.7
20260903192955 74 121 1.0 2.0 0.00 0.55 0.55 97 1010.7
20260903192453 75 20 2.0 2.0 0.00 0.55 0.55 97 1010.7
20260903191947 74 181 0.0 0.0 0.00 0.55 0.55 97 1010.4
20260903191443 74 175 2.0 2.0 0.00 0.55 0.55 98 1010.7
20260903190942 73 113 2.0 3.0 0.00 0.55 0.55 99 1011.1
20260903190437 72 186 0.0 0.0 0.00 0.55 0.55 99 1010.7
20260903185936 72 148 1.0 1.0 0.00 0.55 0.55 99 1011.1
20260903185432 72 100 1.0 2.0 0.00 0.55 0.55 99 1011.1
20260903184927 72 177 0.0 0.0 0.00 0.55 0.55 99 1011.1
20260903184424 71 178 0.0 0.0 0.00 0.55 0.55 99 1011.8
20260903183924 72 197 0.0 0.0 0.02 0.55 0.55 99 1011.5
20260903183419 71 170 0.0 0.0 0.04 0.55 0.55 99 1011.1
20260903182918 72 161 3.0 3.0 0.04 0.55 0.55 99 1011.5
20260903182417 72 173 0.0 0.0 0.04 0.55 0.55 99 1011.5
20260903181912 71 154 1.0 1.0 0.04 0.55 0.55 99 1011.8
20260903181407 71 177 0.0 0.0 0.04 0.55 0.55 99 1011.8
20260903180906 71 175 0.0 0.0 0.04 0.55 0.55 99 1011.8
20260903180401 71 142 0.0 0.0 0.04 0.55 0.55 99 1011.5
20260903175901 71 171 0.0 0.0 0.04 0.55 0.55 99 1011.8
20260903175401 72 146 1.0 1.0 0.04 0.55 0.55 99 1011.5
20260903174856 72 165 0.0 1.0 0.04 0.55 0.55 99 1011.5
20260903174351 73 168 0.0 1.0 0.03 0.54 0.54 99 1011.5
20260903173850 73 181 0.0 0.0 0.00 0.51 0.51 99 1011.8
20260903173346 73 178 0.0 0.0 0.00 0.51 0.51 98 1011.1
20260903172842 73 180 0.0 0.0 0.00 0.51 0.51 98 1011.5
20260903172336 73 181 0.0 0.0 0.00 0.51 0.51 97 1011.5
20260903171832 73 165 0.0 0.0 0.00 0.51 0.51 99 1011.5
20260903171327 73 175 0.0 1.0 0.00 0.51 0.51 99 1011.5
20260903170826 73 179 0.0 0.0 0.00 0.51 0.51 99 1011.5
20260903170321 72 173 0.0 0.0 0.00 0.51 0.51 99 1011.5
20260903165819 72 170 0.0 0.0 0.00 0.51 0.51 99 1011.8
20260903165314 72 164 0.0 0.0 0.00 0.51 0.51 99 1011.8
20260903164814 72 169 0.0 0.0 0.00 0.51 0.51 99 1012.2
20260903164310 71 184 0.0 0.0 0.00 0.51 0.51 99 1011.8
20260903163809 72 189 0.0 0.0 0.00 0.51 0.51 99 1011.8
20260903163306 72 184 0.0 0.0 0.01 0.51 0.51 99 1011.5
20260903162801 73 183 0.0 0.0 0.01 0.51 0.51 99 1011.1
20260903162258 73 175 0.0 0.0 0.01 0.51 0.51 99 1011.1
20260903161753 73 177 0.0 0.0 0.01 0.51 0.51 99 1011.5
20260903161248 73 203 0.0 0.0 0.01 0.51 0.51 99 1011.5
20260903160744 73 172 0.0 0.0 0.01 0.51 0.51 98 1011.1
20260903160243 73 165 0.0 0.0 0.01 0.51 0.51 99 1011.1
20260903155742 73 149 0.0 0.0 0.01 0.51 0.51 99 1011.1
20260903155237 73 141 0.0 0.0 0.01 0.51 0.51 99 1011.1
20260903154732 72 175 0.0 0.0 0.01 0.51 0.51 99 1011.1
20260903154228 72 188 0.0 0.0 0.01 0.51 0.51 99 1011.1
20260903153723 72 180 0.0 0.0 0.01 0.51 0.51 99 1011.1
20260903153219 72 162 0.0 1.0 0.00 0.50 0.50 99 1011.1
20260903152715 72 167 0.0 0.0 0.00 0.50 0.50 99 1010.7
20260903152212 70 143 0.0 1.0 0.00 0.50 0.50 99 1011.1
20260903151711 71 179 0.0 0.0 0.00 0.50 0.50 99 1011.1
20260903151206 72 112 0.0 1.0 0.00 0.50 0.50 99 1011.1
20260903150701 70 168 0.0 0.0 0.00 0.50 0.50 99 1011.1
20260903150156 69 183 0.0 0.0 0.01 0.50 0.50 99 1011.5
20260903145656 69 184 0.0 0.0 0.02 0.50 0.50 99 1011.1
20260903145151 70 176 0.0 0.0 0.02 0.50 0.50 99 1011.1
20260903144649 70 171 0.0 0.0 0.02 0.50 0.50 99 1011.1
20260903144146 70 183 0.0 0.0 0.02 0.50 0.50 99 1011.1
20260903143641 70 202 1.0 1.0 0.02 0.50 0.50 99 1011.1
20260903143137 70 176 0.0 0.0 0.02 0.50 0.50 99 1011.1
20260903142633 69 152 0.0 1.0 0.02 0.50 0.50 99 1011.1
20260903142129 68 126 0.0 1.0 0.02 0.50 0.50 99 1011.5
20260903141624 68 177 0.0 0.0 0.02 0.50 0.50 99 1011.5
20260903141119 68 179 1.0 1.0 0.02 0.50 0.50 99 1011.8
20260903140616 68 177 1.0 2.0 0.01 0.48 0.48 99 1011.5
20260903140111 68 175 0.0 0.0 0.02 0.48 0.48 99 1012.2
20260903135607 68 186 0.0 0.0 0.05 0.48 0.48 99 1012.2
20260903135106 68 177 0.0 0.0 0.13 0.48 0.48 99 1012.2
20260903134605 68 170 0.0 0.0 0.30 0.48 0.48 99 1011.8
20260903134101 68 174 0.0 0.0 0.35 0.48 0.48 99 1011.5
20260903133559 68 179 0.0 0.0 0.37 0.48 0.48 99 1011.5
20260903133054 68 152 0.0 0.0 0.38 0.48 0.48 99 1011.8
20260903132549 68 170 0.0 0.0 0.45 0.48 0.48 99 1012.2
20260903132044 68 159 0.0 0.0 0.48 0.48 0.48 99 1011.8
20260903131544 68 165 0.0 0.0 0.48 0.48 0.48 99 1012.2
20260903131043 68 177 0.0 0.0 0.48 0.48 0.48 99 1011.8
20260903130538 68 179 0.0 0.0 0.47 0.47 0.47 99 1012.5
20260903130033 68 178 0.0 0.0 0.45 0.45 0.45 99 1012.2
20260903125531 67 165 1.0 1.0 0.42 0.42 0.42 99 1012.5
20260903125026 67 168 0.0 0.0 0.33 0.33 0.33 99 1012.9
20260903124521 67 189 0.0 0.0 0.15 0.15 0.15 99 1013.2
20260903124020 67 177 0.0 0.0 0.12 0.12 0.12 99 1012.5
20260903123515 67 183 0.0 0.0 0.10 0.10 0.10 99 1012.5
20260903123013 67 181 0.0 0.0 0.08 0.08 0.08 99 1011.8
20260903122508 66 215 2.0 2.0 0.00 0.00 0.00 99 1012.5
20260903122008 66 153 1.0 1.0 0.00 0.00 0.00 99 1012.5
20260903121503 66 212 1.0 1.0 0.00 0.00 0.00 99 1012.5
20260903120959 66 155 0.0 1.0 0.00 0.00 0.00 99 1012.2
20260903120457 66 187 0.0 0.0 0.00 0.00 0.00 99 1011.8
20260903115956 65 194 1.0 1.0 0.00 0.00 0.00 99 1011.8
20260903115456 65 181 0.0 0.0 0.00 0.00 0.00 99 1011.5
20260903114956 65 186 0.0 0.0 0.00 0.00 0.00 99 1011.5
20260903114451 65 138 0.0 0.0 0.00 0.00 0.00 99 1011.1
20260903113947 65 176 0.0 0.0 0.00 0.00 0.00 99 1011.1
20260903113442 65 179 0.0 0.0 0.00 0.00 0.00 99 1011.1
20260903112938 65 161 0.0 0.0 0.00 0.00 0.00 99 1011.1
20260903112433 65 166 0.0 0.0 0.00 0.00 0.00 99 1011.5
20260903111932 65 173 0.0 0.0 0.00 0.00 0.00 99 1011.5
20260903111427 65 173 0.0 0.0 0.00 0.00 0.00 99 1011.5
20260903110923 65 182 0.0 0.0 0.00 0.00 0.00 99 1011.8
20260903110419 65 167 0.0 0.0 0.00 0.00 0.00 99 1011.8
20260903105914 65 185 0.0 0.0 0.00 0.00 0.00 99 1011.5
20260903105409 65 185 0.0 0.0 0.00 0.00 0.00 99 1011.5
20260903104908 65 174 0.0 0.0 0.00 0.00 0.00 99 1011.1
20260903104403 65 184 0.0 0.0 0.00 0.00 0.00 99 1010.7
20260903103900 65 183 0.0 0.0 0.00 0.00 0.00 99 1010.7
20260903103355 65 173 0.0 0.0 0.00 0.00 0.00 99 1011.1
20260903102850 65 172 0.0 0.0 0.00 0.00 0.00 99 1011.1
20260903102345 65 183 0.0 0.0 0.00 0.00 0.00 99 1010.7
20260903101845 65 178 0.0 0.0 0.00 0.00 0.00 99 1011.1
20260903101340 65 184 0.0 0.0 0.00 0.00 0.00 99 1011.1
20260903100836 65 191 0.0 0.0 0.00 0.00 0.00 99 1011.1
20260903100336 65 186 0.0 1.0 0.00 0.00 0.00 99 1010.7
20260903095832 65 186 0.0 0.0 0.00 0.00 0.00 99 1010.7
20260903095327 65 174 0.0 0.0 0.00 0.00 0.00 99 1011.1
20260903094822 65 174 0.0 0.0 0.00 0.00 0.00 99 1010.7
20260903094317 65 157 0.0 1.0 0.00 0.00 0.00 99 1010.7
20260903093812 65 155 0.0 0.0 0.00 0.00 0.00 99 1010.7
20260903093308 65 155 0.0 1.0 0.00 0.00 0.00 99 1010.7
20260903092808 65 142 0.0 0.0 0.00 0.00 0.00 99 1010.7
20260903092306 64 173 0.0 0.0 0.00 0.00 0.00 99 1010.4
20260903091802 64 140 0.0 0.0 0.00 0.00 0.00 99 1011.1
20260903091255 64 174 0.0 0.0 0.00 0.00 0.00 99 1010.7
20260903090752 64 167 0.0 0.0 0.00 0.00 0.00 99 1011.1
20260903090251 64 172 0.0 0.0 0.00 0.00 0.00 99 1011.1
20260903085750 64 177 0.0 0.0 0.00 0.00 0.00 99 1010.7
20260903085244 64 172 0.0 0.0 0.00 0.00 0.00 99 1011.1
20260903084742 64 164 0.0 0.0 0.00 0.00 0.00 99 1011.1
20260903084237 64 164 0.0 0.0 0.00 0.00 0.00 99 1011.1
20260903083733 65 175 0.0 0.0 0.00 0.00 0.00 99 1010.7
20260903083233 64 177 0.0 0.0 0.00 0.00 0.00 99 1011.1
20260903082732 65 177 0.0 0.0 0.00 0.00 0.00 99 1011.1
20260903082228 65 172 0.0 0.0 0.00 0.00 0.00 99 1011.1
20260903081728 65 159 0.0 0.0 0.00 0.00 0.00 99 1010.7
20260903081224 65 168 0.0 0.0 0.00 0.00 0.00 99 1010.7
20260903080720 65 168 0.0 0.0 0.00 0.00 0.00 99 1011.1
20260903080217 65 172 0.0 0.0 0.00 0.00 0.00 99 1010.7
20260903075716 65 168 0.0 0.0 0.00 0.00 0.00 99 1011.1
20260903075212 65 162 0.0 0.0 0.00 0.00 0.00 99 1010.7
20260903074710 65 156 0.0 0.0 0.00 0.00 0.00 99 1011.1
20260903074206 65 156 0.0 0.0 0.00 0.00 0.00 99 1011.1
20260903073701 65 155 0.0 0.0 0.00 0.00 0.00 99 1011.1
20260903073156 65 171 0.0 0.0 0.00 0.00 0.00 99 1011.1
20260903072652 65 146 0.0 0.0 0.00 0.00 0.00 99 1011.1
20260903072148 65 146 0.0 0.0 0.00 0.00 0.00 99 1011.1
20260903071644 65 166 0.0 0.0 0.00 0.00 0.00 99 1011.1
20260903071140 65 157 0.0 0.0 0.00 0.00 0.00 99 1011.1
20260903070640 65 159 0.0 0.0 0.00 0.00 0.00 99 1011.1
20260903070136 65 170 0.0 0.0 0.00 0.00 0.00 99 1011.1
20260903065635 65 170 0.0 0.0 0.00 0.00 0.00 99 1011.1
20260903065130 65 174 0.0 0.0 0.00 0.00 0.00 99 1011.5
20260903064629 65 174 0.0 0.0 0.00 0.00 0.00 99 1011.1
20260903064125 65 174 0.0 0.0 0.00 0.00 0.00 99 1011.1
20260903063620 66 174 0.0 0.0 0.00 0.00 0.00 99 1011.1
20260903063115 66 174 0.0 0.0 0.00 0.00 0.00 99 1011.5
20260903062611 66 173 0.0 0.0 0.00 0.00 0.00 99 1011.5
20260903062106 65 174 0.0 0.0 0.00 0.00 0.00 99 1011.5
20260903061601 66 174 0.0 0.0 0.00 0.00 0.00 99 1011.5
20260903061101 65 173 0.0 0.0 0.00 0.00 0.00 99 1011.8
20260903060600 65 171 0.0 0.0 0.00 0.00 0.00 99 1011.8
20260903060056 65 171 0.0 0.0 0.00 0.00 0.00 99 1011.5
20260903055553 65 160 0.0 0.0 0.00 0.00 0.00 99 1011.5
20260903055052 65 160 0.0 0.0 0.00 0.00 0.00 99 1011.8
20260903054547 65 160 0.0 0.0 0.00 0.00 0.00 99 1011.5
20260903054043 65 160 0.0 0.0 0.00 0.00 0.00 99 1011.5
20260903053538 65 160 0.0 0.0 0.00 0.00 0.00 99 1011.8
20260903053035 65 160 0.0 0.0 0.00 0.00 0.00 99 1011.5
20260903052530 65 160 0.0 0.0 0.00 0.00 0.00 99 1011.5
20260903052026 65 160 0.0 0.0 0.00 0.00 0.00 99 1011.8
20260903051525 65 160 0.0 0.0 0.00 0.00 0.00 99 1011.5
20260903051021 66 160 0.0 0.0 0.00 0.00 0.00 99 1011.8
20260903050520 66 160 0.0 0.0 0.00 0.00 0.00 99 1011.5
20260903050016 66 160 0.0 0.0 0.00 0.24 0.24 99 1011.8
20260903045510 66 160 0.0 0.0 0.00 0.24 0.24 99 1011.8
20260903045007 66 160 0.0 0.0 0.00 0.24 0.24 99 1011.8
20260903044502 66 160 0.0 0.0 0.00 0.24 0.24 99 1011.8
20260903043958 66 160 0.0 0.0 0.00 0.24 0.24 99 1011.5
20260903043453 66 160 0.0 0.0 0.00 0.24 0.24 99 1011.8
20260903042951 66 160 0.0 0.0 0.00 0.24 0.24 99 1011.5
20260903042447 66 160 0.0 0.0 0.00 0.24 0.24 99 1011.8
20260903041943 66 160 0.0 0.0 0.00 0.24 0.24 99 1011.8
20260903041439 67 160 0.0 0.0 0.00 0.24 0.24 99 1011.8
20260903040935 67 160 0.0 0.0 0.00 0.24 0.24 99 1012.2
20260903040433 67 160 0.0 0.0 0.00 0.24 0.24 99 1011.8
20260903035930 67 160 0.0 0.0 0.00 0.24 0.24 99 1011.8
20260903035425 67 160 0.0 0.0 0.00 0.24 0.24 99 1011.8
20260903034920 67 161 0.0 0.0 0.00 0.24 0.24 99 1011.8
20260903034415 68 161 0.0 0.0 0.00 0.24 0.24 99 1011.8
20260903033910 68 161 0.0 0.0 0.00 0.24 0.24 99 1011.8
20260903033405 67 161 0.0 0.0 0.00 0.24 0.24 99 1011.8
20260903032906 68 161 0.0 0.0 0.00 0.24 0.24 99 1011.5
20260903032401 68 161 0.0 0.0 0.00 0.24 0.24 99 1012.2
20260903031856 68 161 0.0 0.0 0.00 0.24 0.24 99 1012.2
20260903031355 68 161 0.0 0.0 0.00 0.24 0.24 99 1012.2
20260903030851 68 161 0.0 0.0 0.00 0.24 0.24 99 1012.2
20260903030347 68 161 0.0 0.0 0.00 0.24 0.24 99 1012.2
20260903025843 68 161 0.0 0.0 0.00 0.24 0.24 99 1012.2
20260903025338 68 161 0.0 0.0 0.00 0.24 0.24 99 1011.8
20260903024838 68 161 0.0 0.0 0.00 0.24 0.24 99 1011.8
20260903024332 69 161 0.0 0.0 0.00 0.24 0.24 99 1011.8
20260903023827 69 160 0.0 0.0 0.00 0.24 0.24 99 1011.8
20260903023323 69 161 0.0 0.0 0.00 0.24 0.24 99 1011.8
20260903022818 69 161 0.0 0.0 0.00 0.24 0.24 99 1011.8
20260903022316 69 161 0.0 0.0 0.00 0.24 0.24 99 1011.8
20260903021811 69 161 0.0 0.0 0.00 0.24 0.24 99 1011.8
20260903021307 70 161 0.0 0.0 0.00 0.24 0.24 99 1011.5
20260903020806 70 161 0.0 0.0 0.00 0.24 0.24 99 1011.5
20260903020301 71 161 0.0 0.0 0.00 0.24 0.24 99 1011.8
20260903015756 71 161 0.0 0.0 0.00 0.24 0.24 99 1011.8
20260903015252 71 160 0.0 0.0 0.00 0.24 0.24 99 1011.5
20260903014747 71 161 0.0 0.0 0.00 0.24 0.24 99 1011.8
20260903014246 71 161 0.0 0.0 0.00 0.24 0.24 99 1011.1
20260903013742 71 161 0.0 0.0 0.00 0.24 0.24 99 1011.5
20260903013241 72 161 0.0 0.0 0.00 0.24 0.24 99 1011.5
20260903012739 72 161 0.0 0.0 0.00 0.24 0.24 99 1011.5
20260903012234 72 160 0.0 0.0 0.00 0.24 0.24 99 1011.1
20260903011734 72 160 0.0 0.0 0.00 0.24 0.24 99 1011.5
20260903011227 73 160 0.0 0.0 0.00 0.24 0.24 98 1011.5
20260903010724 73 161 0.0 0.0 0.00 0.24 0.24 97 1011.1
20260903010223 73 160 0.0 0.0 0.00 0.24 0.24 97 1011.1
20260903005722 73 162 0.0 0.0 0.00 0.24 0.24 96 1011.1
20260903005217 74 162 0.0 0.0 0.00 0.24 0.24 96 1011.1
20260903004713 74 166 0.0 0.0 0.00 0.24 0.24 95 1011.1
20260903004208 75 172 0.0 0.0 0.00 0.24 0.24 95 1011.1
20260903003704 75 172 0.0 0.0 0.00 0.24 0.24 94 1011.1
20260903003159 76 173 0.0 0.0 0.00 0.24 0.24 93 1011.1
20260903002654 76 174 0.0 0.0 0.00 0.24 0.24 92 1011.1
20260903002148 77 173 0.0 0.0 0.00 0.24 0.24 91 1011.1
20260903001643 77 174 0.0 0.0 0.00 0.24 0.24 89 1011.5
20260903001137 78 174 0.0 0.0 0.00 0.24 0.24 88 1011.1
20260903000633 78 174 0.0 0.0 0.00 0.24 0.24 87 1011.5
20260903000132 78 174 0.0 0.0 0.00 0.24 0.24 85 1011.1
20260902235630 79 174 0.0 0.0 0.00 0.24 0.24 84 1011.1
20260902235126 79 174 0.0 0.0 0.00 0.24 0.24 84 1011.1
20260902234620 80 169 0.0 0.0 0.00 0.24 0.24 81 1011.1
20260902234119 80 169 0.0 0.0 0.00 0.24 0.24 80 1011.5
20260902233614 80 179 0.0 0.0 0.00 0.24 0.24 79 1011.5
20260902233108 80 183 0.0 0.0 0.00 0.24 0.24 79 1011.1
20260902232608 80 184 0.0 0.0 0.00 0.24 0.24 78 1011.1
20260902232102 81 184 0.0 0.0 0.00 0.24 0.24 78 1011.1
20260902231601 81 186 0.0 0.0 0.00 0.24 0.24 76 1011.1
20260902231056 82 160 0.0 1.0 0.00 0.24 0.24 75 1011.5
20260902230551 82 185 0.0 0.0 0.00 0.24 0.24 75 1011.5
20260902230050 82 171 0.0 0.0 0.00 0.24 0.24 74 1011.1
20260902225545 82 172 0.0 0.0 0.00 0.24 0.24 74 1011.1
20260902225045 82 191 1.0 1.0 0.00 0.24 0.24 75 1011.1
20260902224543 82 178 0.0 0.0 0.00 0.24 0.24 74 1011.1
20260902224040 83 50 0.0 1.0 0.00 0.24 0.24 75 1011.1
20260902223536 84 263 0.0 1.0 0.00 0.24 0.24 73 1011.1
20260902223034 84 188 0.0 0.0 0.00 0.24 0.24 72 1011.1
20260902222533 84 209 1.0 1.0 0.00 0.24 0.24 71 1011.1
20260902222032 83 197 0.0 1.0 0.00 0.24 0.24 73 1010.7
20260902221527 83 287 2.0 2.0 0.00 0.24 0.24 72 1011.1
20260902221022 85 183 0.0 0.0 0.00 0.24 0.24 72 1011.1
20260902220517 86 187 0.0 0.0 0.00 0.24 0.24 70 1011.1
20260902220012 86 181 0.0 0.0 0.00 0.24 0.24 69 1010.7
20260902215508 86 184 0.0 1.0 0.00 0.24 0.24 69 1011.1
20260902215004 85 187 1.0 1.0 0.00 0.24 0.24 68 1011.1
20260902214503 86 161 1.0 1.0 0.00 0.24 0.24 69 1011.1
20260902214002 86 190 0.0 0.0 0.00 0.24 0.24 68 1011.1
20260902213458 85 190 0.0 0.0 0.00 0.24 0.24 68 1011.1